This is the latest recevied weather packets stored in our database for station/object KC3UTO. If no packets are shown the sender has not sent any weather packets the latest 1 day(s).
| Time | Temp. | Humidity | Pressure | Rain* | Wind** | Luminosity | Snow |
|---|---|---|---|---|---|---|---|
| 1778041982 | 18.89° C | 59% | 1009.2 hPa | 0 mm | - | 0 W/m² | - |
| 1778041379 | 18.89° C | 57% | 1009.5 hPa | 0 mm | - | 0 W/m² | - |
| 1778041077 | 19.44° C | 57% | 1009.5 hPa | 0 mm | - | 0 W/m² | - |
| 1778040471 | 19.44° C | 55% | 1009.1 hPa | 0 mm | - | 0 W/m² | - |
| 1778040168 | 19.44° C | 55% | 1009.2 hPa | 0 mm | - | 0 W/m² | - |
| 1778039865 | 20° C | 54% | 1009.4 hPa | 0 mm | - | 0 W/m² | - |
| 1778039258 | 20° C | 53% | 1009 hPa | 0 mm | - | 0 W/m² | - |
| 1778038956 | 20° C | 53% | 1009.3 hPa | 0 mm | - | 0 W/m² | - |
| 1778038653 | 20° C | 52% | 1009.2 hPa | 0 mm | - | 0 W/m² | - |
| 1778038350 | 20° C | 52% | 1009.1 hPa | 0 mm | - | 0 W/m² | - |
| 1778038047 | 20.56° C | 51% | 1009.1 hPa | 0 mm | - | 0 W/m² | - |
| 1778037440 | 20.56° C | 50% | 1009.1 hPa | 0 mm | - | 0 W/m² | - |
| 1778037138 | 20.56° C | 50% | 1009.3 hPa | 0 mm | - | 0 W/m² | - |
| 1778036836 | 20.56° C | 50% | 1009.1 hPa | 0 mm | - | 0 W/m² | - |
| 1778036533 | 20.56° C | 50% | 1009 hPa | 0 mm | - | 0 W/m² | - |
| 1778035926 | 21.11° C | 49% | 1009.2 hPa | 0 mm | - | 0 W/m² | - |
| 1778035623 | 21.11° C | 48% | 1009.2 hPa | 0 mm | - | 0 W/m² | - |
| 1778035016 | 21.67° C | 47% | 1009.2 hPa | 0 mm | - | 0 W/m² | - |
| 1778034410 | 21.67° C | 45% | 1009.2 hPa | 0 mm | - | 0 W/m² | - |
| 1778034108 | 21.67° C | 45% | 1009.1 hPa | 0 mm | - | 0 W/m² | - |
| 1778033806 | 21.67° C | 45% | 1009.1 hPa | 0 mm | - | 0 W/m² | - |
| 1778031989 | 22.78° C | 43% | 1008.7 hPa | 0 mm | - | 0 W/m² | - |
| 1778031684 | 22.78° C | 42% | 1008.8 hPa | 0 mm | - | 0 W/m² | - |
| 1778031383 | 23.33° C | 41% | 1008.8 hPa | 0 mm | - | 0 W/m² | - |
| 1778031079 | 23.33° C | 40% | 1008.9 hPa | 0 mm | - | 0 W/m² | - |
* Rain latest hour (hover to see other rain measurements)
** Current wind speed in m/s (hover to see current wind gust speed)